Location: Coopersdale
(40.3556°N, 78.9372°W)
Time: 13:32:21
(UTC+00:00)

S-56A Canister/Altair - Visible Passes

Search period start: 25 January 2021 00:00
Search period end: 04 February 2021 00:00
Orbit: 633 x 2499 km, 38.9° (Epoch: 24 January)

Date Brightness Start Highest point End Pass type
(mag) Time Alt. Az. Time Alt. Az. Time Alt. Az.
25 Jan 7.4 10:32:12 55° WSW 10:33:01 65° S 10:38:44 10° ESE visible
26 Jan 7.8 10:01:19 56° SE 10:01:19 56° SE 10:05:48 10° ESE visible
26 Jan 8.9 11:59:35 10° W 12:04:00 32° SSW 12:09:48 10° SE visible
27 Jan 9.1 09:30:27 28° ESE 09:30:27 28° ESE 09:32:58 10° ESE visible
27 Jan 8.6 11:27:52 14° W 11:31:25 34° SSW 11:36:55 10° SE visible
28 Jan 10.1 08:59:35 13° E 08:59:35 13° E 09:00:12 10° E visible
28 Jan 8.3 10:57:02 26° WSW 10:58:52 36° SSW 11:04:05 10° SE visible
29 Jan 7.9 10:26:12 40° SSW 10:26:21 40° SSW 10:31:18 10° SE visible
30 Jan 8.5 09:55:23 32° SSE 09:55:23 32° SSE 09:58:35 10° SE visible
30 Jan 9.5 11:54:42 10° WSW 11:57:10 14° SSW 11:59:55 10° S visible
31 Jan 9.6 09:24:36 18° SE 09:24:36 18° SE 09:25:57 10° ESE visible
31 Jan 9.3 11:22:03 11° WSW 11:24:35 15° SSW 11:27:36 10° S visible
01 Feb 9.0 10:51:17 16° SW 10:52:02 17° SSW 10:55:17 10° S visible
02 Feb 9.1 10:20:34 18° SSW 10:20:34 18° SSW 10:22:57 10° SSE visible
03 Feb 10.8 01:28:34 10° S 01:28:42 10° S 01:28:42 10° S visible
03 Feb 9.6 09:49:52 13° SSE 09:49:52 13° SSE 09:50:37 10° SSE visible
